Temperature
17 17 17 17 17 17 17 16 17 17 17 17 17 17 17 17 17 17 17 17 17 17 17 17 17 17 17 17 17 17 17 17 17 17 17 17 16 17 17 17 16 16 16
16 16 16 16 16 16 16 16 16 16 16 16 16 16 16 17 17 17 17 17 17 17 17 17 17 17 17 17 17 17 17 17 17 17 17 17 17 16 16 17 17 16 16
16 16 16 15 15 15 15 15 16 16 16 16 16 16 16 16 16 17 17 17 17 17 17 17 17 17 17 17 17 17 17 17 17 17 17 17 17 16 16 16 16 16 16
15 15 15 15 15 15 15 15 15 15 15 15 16 16 16 16 16 16 16 16 17 17 16 16 16 17 17 16 17 17 17 17 17 17 17 17 16 16 16 16 16 16 16
14 14 14 14 14 14 14 15 15 15 15 15 15 15 15 15 16 16 16 16 16 16 16 16 16 16 16 16 16 16 16 17 17 16 16 16 16 16 16 16 16 16 16
14 14 14 14 14 14 14 14 14 14 14 15 15 15 15 15 15 15 16 16 16 16 16 16 16 16 16 16 16 16 16 16 16 16 16 16 16 16 16 16 16 16 16
14 14 14 14 14 14 14 14 14 14 14 14 14 14 15 15 15 15 15 15 16 16 16 16 16 16 16 16 16 16 16 16 16 16 16 16 16 16 16 16 16 16 16
13 13 13 13 13 13 13 13 13 14 14 14 14 14 14 14 14 14 15 15 15 15 15 15 15 16 16 16 16 16 16 16 16 16 16 16 16 16 16 16 16 16 16
13 13 13 13 13 13 13 13 13 13 13 13 14 14 14 14 14 14 14 14 15 15 15 15 15 15 15 15 15 15 15 15 16 16 16 16 16 16 16 16 16 16 16
13 13 13 13 13 13 13 13 13 13 13 13 13 13 13 13 14 14 14 14 14 14 14 15 15 15 15 15 15 15 15 15 15 15 16 16 16 16 16 16 16 16 16
13 13 13 12 12 12 12 12 13 13 13 13 13 13 13 13 13 13 14 14 14 14 14 14 14 14 15 15 15 15 15 15 15 15 15 15 15 16 16 16 16 16 16
14 13 13 13 12 12 12 12 12 12 12 12 12 12 12 12 12 12 13 13 14 14 14 14 14 14 14 14 14 15 15 15 15 15 15 15 15 15 15 15 16 16 16
14 14 13 13 12 12 12 12 12 12 12 12 12 12 12 12 12 12 12 12 12 13 13 13 13 13 13 14 14 14 14 14 14 14 15 15 15 15 15 15 15 15 16
14 14 14 13 13 12 12 12 12 12 12 11 11 11 11 11 11 11 11 11 11 12 12 13 13 13 13 13 13 13 13 14 14 14 14 14 14 14 15 15 15 15 15
14 14 14 13 13 13 12 12 12 12 11 11 11 11 11 11 11 11 11 11 10 10 11 12 12 12 12 12 12 13 13 13 13 13 14 14 14 14 14 14 15 15 15
15 15 14 14 13 13 13 12 12 12 12 11 11 11 11 11 11 11 10 10 10 10 10 11 11 11 11 12 12 12 12 12 13 13 13 13 13 14 14 14 14 14 14
15 15 15 14 14 13 13 13 12 12 12 12 11 11 11 11 11 11 10 10 10 10 10 10 11 11 11 11 11 11 12 12 12 12 13 13 13 13 13 14 14 14 14
16 15 15 15 14 14 13 13 13 12 12 12 12 11 11 11 11 11 10 10 10 10 10 10 10 11 11 11 11 11 11 11 12 12 12 12 13 13 13 13 13 14 14
17 16 16 16 15 15 14 14 13 13 13 12 12 12 11 11 11 11 10 10 10 10 10 10 10 10 10 10 10 11 11 11 11 11 12 12 12 12 12 13 13 13 13
17 17 16 16 16 15 15 14 14 14 13 13 12 12 12 11 11 11 10 10 10 10 10 10 10 10 10 10 10 10 10 11 11 11 11 11 12 12 12 12 12 13 13
18 17 17 17 16 16 16 15 15 14 14 13 13 13 12 12 11 11 11 10 10 10 10 10 10 10 10 10 10 10 10 10 10 11 11 11 11 11 11 12 12 12 12
18 17 17 17 17 16 16 15 15 15 14 14 14 13 13 12 12 11 11 11 10 10 10 10 10 10 10 10 10 10 9 9 10 10 10 11 11 11 11 11 12 12 12
18 18 17 17 17 17 16 16 15 15 15 14 14 13 13 13 12 11 11 11 10 10 10 10 9 10 10 10 10 9 9 9 9 10 9 10 10 11 11 11 11 12 12
18 17 17 17 17 17 16 15 15 14 14 14 14 14 13 13 12 12 11 11 11 10 10 10 10 10 10 10 9 9 9 9 9 9 9 9 10 10 11 11 11 11 12
17 17 17 16 16 16 16 15 15 14 14 14 14 14 13 13 13 11 11 11 11 11 10 10 10 9 9 9 9 9 9 8 8 9 9 9 9 9 10 10 11 11 11
16 16 16 16 15 15 15 15 15 14 14 14 14 14 13 13 13 12 11 11 11 11 11 10 10 9 9 9 9 9 9 8 8 8 9 9 9 9 9 10 10 10 11
Wind_Speed
3 4 4 5 5 4 3 2 2 2 1 1 1 0 0 1 2 3 4 5 8 12 14 14 16 16 16 16 16 16 16 16 16 16 15 14 14 13 13 12 12 12 11
5 4 3 4 4 4 4 4 3 2 2 2 1 1 1 1 1 2 3 4 5 10 12 13 15 15 16 16 16 17 17 17 17 17 16 16 15 15 14 13 13 12 12
6 5 4 3 4 5 5 5 4 4 3 2 2 2 2 1 1 2 3 3 4 6 10 12 14 15 16 16 17 18 18 18 18 18 18 17 17 17 16 15 14 14 13
7 6 4 3 5 5 5 4 3 3 3 3 2 2 2 2 2 2 3 4 4 5 8 12 14 14 15 16 16 17 19 19 20 20 20 19 19 18 18 17 16 15 15
7 7 5 4 6 6 4 3 3 2 2 2 1 2 2 2 2 2 2 3 4 5 6 9 11 13 15 15 15 16 18 19 20 21 21 21 20 20 20 19 18 17 17
6 7 5 5 6 4 4 4 4 4 2 2 2 2 3 3 3 3 3 2 2 4 5 6 8 10 14 15 15 16 17 18 20 21 21 22 22 22 22 21 21 20 19
5 6 4 5 4 4 3 3 2 4 4 3 2 3 3 4 4 5 5 4 5 3 2 3 5 6 8 12 15 17 18 18 19 21 22 22 23 23 23 23 23 22 21
4 4 4 3 3 4 4 4 3 2 3 4 2 2 2 3 4 5 5 6 6 6 5 3 1 3 5 6 9 13 17 18 19 19 21 23 24 24 25 25 24 24 23
3 4 4 4 3 3 3 3 3 3 2 3 3 2 2 1 2 3 4 5 6 6 6 6 6 4 2 3 4 6 10 14 16 18 19 21 23 24 25 26 26 25 25
3 4 4 4 3 2 2 2 2 2 3 2 2 3 2 1 1 1 3 3 5 6 6 5 6 7 5 3 2 4 6 7 9 13 16 18 20 22 24 25 26 26 27
3 4 5 5 4 2 2 2 2 2 2 2 1 1 2 2 2 1 1 4 4 3 4 4 5 6 8 7 5 5 5 4 5 7 9 13 16 20 22 24 25 26 27
2 4 6 5 4 3 3 3 2 3 2 2 1 1 1 1 1 1 0 1 3 3 3 3 4 5 7 7 7 8 6 5 4 5 6 8 11 14 17 20 23 25 26
3 5 5 5 4 5 4 4 3 2 3 2 2 1 2 1 2 2 1 1 2 2 3 2 2 4 6 7 7 8 7 6 6 6 6 7 8 10 12 15 19 22 25
5 4 6 6 6 6 5 4 3 3 3 3 3 3 2 2 3 3 3 2 1 2 2 3 2 3 5 6 7 8 7 8 8 8 8 8 9 10 11 13 15 17 20
4 5 6 6 6 6 6 5 4 4 4 4 4 4 3 3 3 4 3 3 3 2 3 3 2 2 5 7 8 7 7 8 9 9 9 10 10 11 12 13 14 15 17
5 6 6 6 6 6 6 5 5 5 5 5 4 5 4 3 4 4 4 4 5 4 4 3 3 4 5 7 8 7 7 9 9 9 9 10 11 12 13 14 15 16 16
7 7 7 7 7 7 6 6 7 6 6 6 5 6 7 5 4 4 4 5 5 5 6 6 4 3 4 6 7 7 7 7 7 9 10 11 11 12 14 14 15 16 16
8 8 7 7 8 8 7 8 8 8 8 8 8 7 8 6 6 6 5 6 6 7 7 8 5 4 5 5 5 5 6 6 7 9 11 12 12 12 13 14 15 16 16
9 8 8 9 9 9 9 9 9 9 9 9 9 8 9 7 8 7 7 7 6 6 7 7 6 4 4 4 4 4 5 5 6 8 10 10 10 11 12 13 14 16 17
10 10 10 10 10 9 9 9 9 9 9 9 9 9 10 9 10 9 8 8 7 7 7 7 7 6 6 5 4 5 5 4 4 6 8 8 8 9 10 11 13 14 16
11 10 10 10 10 9 9 10 10 10 10 10 10 10 10 12 13 11 8 9 8 8 7 7 8 6 6 5 5 4 5 5 5 4 4 4 5 6 8 10 11 13 15
10 10 11 11 11 10 13 15 12 10 10 11 11 10 10 12 14 15 16 14 12 10 10 9 9 9 10 8 6 5 5 4 5 3 3 5 4 7 8 10 13 15 17
10 11 12 11 12 14 16 16 17 12 11 11 12 11 10 10 12 11 12 14 14 16 16 12 13 13 11 9 7 7 7 7 7 5 3 6 5 8 9 12 16 18 19
9 10 11 12 13 14 17 18 17 14 12 13 13 13 12 12 11 11 11 11 12 12 13 13 13 14 13 11 9 9 8 7 7 6 5 6 6 8 9 11 17 19 19
9 10 8 11 13 15 17 18 17 10 12 14 14 14 14 14 15 15 12 13 13 13 13 17 17 17 17 16 11 6 6 6 7 6 5 5 6 7 7 8 11 14 15
9 8 10 11 12 14 15 18 17 10 12 13 12 13 16 17 17 16 14 13 15 14 11 10 10 13 13 13 14 12 10 9 8 7 6 6 5 4 5 4 4 5 7
Wind_Direction
73 62 55 50 47 57 69 71 74 74 67 45 37 274 296 204 210 219 237 246 224 212 209 205 202 201 198 196 193 190 189 190 189 186 185 183 182 182 181 180 176 174 172
84 73 61 54 46 53 73 83 81 82 68 54 29 27 43 23 259 258 260 269 237 215 210 210 207 206 206 206 203 200 197 197 195 193 193 191 190 190 190 188 186 184 182
89 87 75 58 47 63 80 82 76 70 63 53 34 23 36 23 284 274 274 271 260 236 221 219 215 212 214 214 211 208 206 204 201 199 199 199 198 197 197 196 194 193 191
97 90 78 61 59 74 80 81 68 67 54 46 29 6 8 358 329 296 273 261 256 252 242 233 227 224 224 224 222 219 213 210 207 204 203 204 204 203 203 203 202 200 199
99 92 81 68 72 72 65 77 62 68 55 27 6 19 7 5 346 336 313 280 261 253 247 245 240 235 231 231 230 230 224 217 214 212 209 208 208 208 208 207 207 207 206
103 94 81 68 71 72 64 68 72 57 51 10 15 26 16 17 28 30 13 352 304 267 252 248 248 245 240 235 232 234 232 227 221 218 216 214 213 212 212 212 211 211 211
114 99 90 72 68 74 72 79 86 60 35 8 46 21 5 20 42 36 29 36 29 8 306 261 256 252 251 242 236 235 235 233 227 224 221 219 217 215 215 215 215 214 214
142 119 108 96 85 86 71 62 76 82 35 24 70 78 26 5 6 18 24 35 31 35 38 31 345 271 256 252 244 240 237 237 235 230 225 223 221 219 218 218 217 217 217
172 141 132 120 106 100 94 77 80 99 88 34 39 110 124 174 324 341 9 23 23 32 29 29 27 2 303 263 265 261 249 242 240 237 232 228 226 224 221 220 220 219 219
191 173 160 149 135 122 115 99 88 91 106 70 36 43 74 135 110 350 340 358 10 25 18 23 23 22 20 8 320 296 280 261 252 244 237 232 230 228 226 223 223 223 221
216 198 184 172 160 153 145 124 111 104 103 113 90 73 73 63 67 105 333 338 348 353 360 5 15 23 25 24 13 351 329 300 279 265 252 240 235 233 230 228 228 228 226
233 215 196 188 182 176 174 167 153 139 136 128 128 122 129 123 116 119 165 313 320 318 332 345 9 13 17 17 13 5 360 348 320 292 276 262 250 243 239 235 234 233 232
216 216 197 192 194 198 195 182 178 182 176 171 177 182 183 189 170 157 165 235 294 307 320 320 335 355 8 6 0 357 353 345 334 317 297 280 267 260 254 249 243 239 236
214 208 199 201 205 202 200 193 198 207 198 200 203 196 200 208 192 185 179 174 268 304 301 291 308 308 344 346 340 342 335 331 322 312 298 286 277 271 267 262 256 249 243
218 209 204 204 209 209 206 196 212 219 208 216 221 217 219 221 208 209 200 189 190 250 282 275 281 296 319 321 324 325 319 319 314 304 296 286 278 274 270 266 262 256 250
213 205 208 212 214 215 212 207 221 224 219 227 221 222 231 232 220 213 211 210 207 214 246 255 254 277 296 302 308 311 307 309 308 302 297 290 282 276 272 268 262 257 253
209 211 212 213 217 221 217 214 225 224 227 236 231 227 237 232 229 224 214 212 213 209 241 263 252 263 273 282 297 304 301 297 298 298 296 291 283 277 273 269 263 258 254
213 215 214 216 222 225 220 218 229 229 228 237 239 233 241 236 232 231 222 223 223 217 229 260 266 260 257 267 277 288 293 294 293 296 296 290 283 279 277 270 264 259 255
217 217 215 220 226 227 225 224 227 232 232 236 238 236 241 235 238 235 228 232 234 232 226 244 262 255 259 263 274 278 279 283 290 293 295 290 285 284 282 275 267 262 258
216 219 220 223 227 228 229 229 229 233 236 238 238 237 239 234 236 236 233 234 235 238 236 242 257 259 259 259 254 265 278 273 285 292 285 281 283 289 287 283 275 266 260
220 220 222 227 229 229 232 229 229 233 236 242 243 240 239 237 236 234 234 234 230 236 240 244 254 258 257 249 247 243 263 279 280 264 273 274 278 287 290 285 279 272 266
221 219 224 228 230 233 230 224 221 231 233 238 244 244 243 246 246 244 240 235 225 231 239 243 251 252 257 252 247 241 248 265 278 245 245 275 275 282 282 277 272 272 270
222 224 228 227 233 235 230 229 224 225 232 236 238 242 246 244 237 243 247 248 243 236 231 237 248 251 255 248 238 242 235 237 251 253 246 276 271 275 276 274 271 270 268
226 232 234 232 234 239 230 229 228 228 235 238 237 236 240 246 240 234 243 250 251 248 240 239 243 249 249 248 237 241 247 249 255 254 229 262 271 272 277 275 272 269 267
234 234 237 236 237 244 233 227 223 228 236 241 239 236 235 243 239 227 235 248 255 256 249 241 240 244 245 242 231 229 232 236 259 260 214 232 264 272 274 271 269 267 264
247 250 249 245 243 248 242 229 220 225 235 243 243 239 233 234 236 223 228 236 248 254 251 251 245 247 248 247 231 225 230 239 253 261 227 214 246 257 276 259 261 272 278
Height
1555 1555 1555 1555 1556 1557 1557 1558 1559 1560 1561 1562 1563 1564 1565 1566 1567 1569 1570 1571 1572 1573 1575 1576 1578 1580 1582 1583 1585 1587 1589 1591 1593 1594 1596 1598 1599 1601 1602 1604 1605 1606 1607
1553 1553 1553 1554 1554 1555 1556 1557 1558 1559 1560 1561 1561 1562 1563 1565 1566 1567 1568 1569 1570 1572 1573 1575 1577 1578 1580 1582 1584 1586 1588 1590 1592 1594 1595 1597 1599 1601 1602 1604 1605 1606 1608
1552 1552 1552 1552 1553 1553 1554 1555 1556 1557 1558 1559 1560 1561 1562 1563 1564 1565 1566 1567 1568 1570 1571 1573 1575 1576 1578 1580 1582 1584 1586 1588 1590 1592 1594 1596 1598 1600 1601 1603 1605 1606 1607
1551 1551 1551 1551 1552 1553 1553 1554 1555 1556 1557 1558 1558 1559 1560 1561 1561 1562 1563 1564 1566 1567 1568 1570 1572 1574 1576 1578 1580 1582 1584 1586 1588 1590 1592 1594 1597 1598 1600 1602 1604 1605 1607
1551 1551 1551 1551 1551 1552 1553 1553 1554 1555 1556 1556 1557 1558 1558 1559 1559 1560 1561 1562 1563 1564 1565 1567 1569 1571 1573 1575 1577 1578 1581 1583 1585 1587 1590 1592 1594 1596 1598 1600 1602 1604 1605
1551 1550 1550 1550 1551 1551 1552 1552 1553 1553 1554 1555 1555 1556 1556 1557 1557 1557 1558 1559 1560 1561 1563 1564 1566 1568 1570 1572 1573 1575 1577 1579 1581 1584 1587 1589 1591 1593 1596 1598 1600 1602 1603
1551 1551 1550 1550 1551 1551 1551 1552 1552 1552 1553 1553 1554 1555 1555 1556 1556 1556 1556 1557 1558 1559 1560 1561 1563 1565 1567 1568 1570 1572 1574 1576 1578 1580 1582 1585 1587 1590 1592 1595 1597 1599 1601
1552 1551 1551 1550 1550 1551 1551 1551 1551 1551 1552 1552 1553 1553 1554 1556 1555 1555 1556 1556 1556 1557 1558 1559 1561 1562 1564 1565 1567 1568 1570 1572 1574 1576 1578 1580 1583 1585 1588 1591 1593 1595 1597
1552 1552 1552 1551 1551 1551 1551 1551 1551 1551 1551 1551 1552 1553 1553 1554 1555 1556 1555 1556 1556 1556 1557 1558 1559 1560 1561 1562 1564 1565 1567 1568 1570 1571 1573 1575 1578 1580 1583 1586 1588 1591 1593
1552 1552 1552 1552 1551 1551 1551 1550 1550 1550 1550 1550 1551 1551 1553 1553 1554 1555 1556 1555 1556 1556 1556 1557 1557 1558 1559 1560 1561 1562 1563 1564 1565 1567 1568 1570 1572 1575 1577 1580 1582 1585 1588
1552 1552 1552 1552 1552 1551 1551 1550 1550 1550 1550 1550 1550 1550 1551 1552 1552 1553 1554 1555 1555 1555 1555 1556 1556 1556 1557 1557 1558 1559 1559 1560 1561 1562 1564 1565 1567 1569 1571 1573 1576 1579 1581
1551 1551 1552 1552 1551 1551 1551 1550 1550 1550 1549 1549 1549 1550 1550 1550 1551 1551 1552 1552 1552 1553 1554 1554 1554 1554 1554 1555 1555 1556 1556 1557 1558 1558 1559 1560 1562 1563 1565 1567 1569 1572 1575
1550 1550 1550 1551 1551 1550 1550 1550 1550 1549 1549 1549 1549 1549 1549 1549 1549 1550 1550 1550 1550 1550 1551 1551 1551 1552 1552 1552 1552 1553 1553 1553 1554 1554 1555 1556 1557 1558 1559 1561 1563 1565 1567
1548 1549 1549 1549 1549 1549 1549 1549 1549 1549 1548 1548 1548 1548 1548 1548 1548 1548 1548 1548 1547 1547 1547 1548 1548 1548 1548 1549 1549 1549 1549 1549 1550 1550 1550 1551 1551 1552 1553 1554 1556 1558 1560
1546 1546 1547 1547 1547 1547 1547 1547 1547 1547 1547 1547 1546 1546 1546 1546 1546 1546 1546 1546 1547 1545 1544 1544 1544 1545 1545 1545 1544 1544 1545 1545 1545 1546 1546 1546 1547 1547 1548 1548 1549 1550 1552
1544 1544 1544 1545 1545 1545 1545 1545 1545 1545 1545 1544 1544 1544 1544 1544 1543 1543 1543 1543 1543 1543 1541 1540 1540 1541 1540 1540 1540 1540 1540 1540 1540 1540 1541 1541 1541 1542 1542 1542 1543 1543 1545
1541 1541 1542 1542 1542 1542 1542 1542 1542 1542 1542 1541 1541 1541 1541 1540 1540 1540 1540 1539 1539 1538 1537 1536 1536 1536 1536 1536 1535 1535 1535 1534 1535 1535 1535 1535 1536 1536 1536 1536 1536 1537 1538
1538 1539 1539 1539 1539 1539 1539 1539 1539 1539 1538 1538 1537 1537 1537 1536 1536 1536 1536 1535 1535 1534 1533 1531 1531 1531 1531 1531 1530 1530 1529 1529 1529 1529 1529 1529 1529 1529 1529 1529 1530 1530 1531
1535 1536 1536 1536 1536 1536 1536 1535 1535 1535 1534 1534 1533 1533 1532 1532 1531 1531 1531 1531 1530 1530 1528 1527 1526 1526 1526 1526 1525 1525 1524 1524 1523 1523 1523 1523 1523 1523 1523 1523 1523 1524 1525
1532 1532 1533 1533 1533 1532 1532 1531 1531 1530 1529 1529 1528 1528 1527 1527 1526 1526 1526 1525 1525 1524 1523 1522 1520 1520 1520 1520 1520 1519 1519 1518 1518 1517 1517 1517 1516 1516 1517 1517 1517 1517 1518
1528 1528 1528 1528 1528 1528 1528 1527 1526 1525 1524 1524 1523 1522 1522 1521 1521 1520 1520 1519 1519 1518 1517 1516 1515 1514 1514 1514 1514 1514 1513 1512 1511 1511 1511 1511 1510 1510 1510 1510 1510 1510 1510
1523 1523 1523 1523 1523 1523 1523 1522 1521 1520 1519 1518 1517 1516 1516 1515 1514 1514 1513 1513 1512 1511 1510 1510 1509 1508 1508 1509 1509 1508 1507 1506 1505 1506 1504 1504 1504 1503 1503 1503 1503 1503 1503
1518 1518 1518 1518 1517 1517 1517 1516 1515 1514 1513 1512 1511 1510 1509 1508 1508 1507 1507 1506 1505 1504 1504 1504 1502 1501 1502 1503 1503 1502 1501 1500 1499 1499 1498 1496 1497 1495 1496 1495 1495 1495 1495
1511 1511 1511 1511 1510 1510 1510 1509 1508 1507 1506 1505 1504 1503 1502 1501 1501 1501 1500 1499 1498 1497 1497 1496 1495 1495 1496 1496 1496 1496 1495 1493 1492 1493 1492 1489 1489 1488 1488 1487 1487 1487 1487
1503 1502 1502 1502 1501 1501 1502 1501 1501 1499 1497 1496 1496 1495 1495 1494 1494 1494 1492 1491 1490 1490 1491 1490 1489 1489 1489 1489 1489 1489 1488 1487 1485 1485 1485 1483 1481 1481 1479 1479 1479 1479 1479
1494 1493 1493 1493 1492 1491 1492 1492 1492 1490 1488 1488 1487 1487 1486 1486 1486 1486 1484 1483 1482 1482 1483 1483 1482 1482 1482 1482 1482 1481 1481 1480 1478 1477 1477 1477 1475 1475 1472 1471 1472 1472 1472